Location: Passau
(48.5721°N, 13.4363°E)
Time: 12:07:52
(UTC+02:00)

ISS - Pass Details

Date: 30 September 2020
Orbit: 418 x 420 km, 51.6° (Epoch: 21 October)

Event Time Altitude Azimuth Distance (km) Brightness Sun altitude
Rises 20:17:30 0° 290° (WNW) 2,370 1.9 -15.8°
Reaches altitude 10° 20:19:37 10° 292° (WNW) 1,504 0.4 -16.1°
Maximum altitude 20:22:59 77° 19° (NNE) 436 -3.8 -16.7°
Enters shadow 20:23:51 47° 94° (E) 570 -3.6 -16.8°
